Content
SEND FEEDBACK

Daily
Averages
Monthly
Summary
United States of America

CHAUTAUQUA, NEW YORK


Home > North America > United States > New York
Elevation: 1264 feet     Latitude: 42 17N     Longitude: 079 37W

WEATHER
 
SELECT A DAY
Number of Records: 203,149;   Date Range: 12/11/96 - 9/20/14
 
SHARE

PRINT THIS DATA

[ ← Previous Day ]
WEATHER ALMANAC - JANUARY 3, 2013
[ Next Day → ]
[ °C ]   °F
Weather ElementAverageHighLow
Temperature26.6 °F30.9 °F (7:53 pm)21 °F (8:53 am)
Dewpoint20.1 °F26.6 °F (7:18 pm)12.9 °F (7:53 am)
Humidity76.5 %86 % (5:46 pm)56 % (1:53 pm)
Barometer30.08 in30.19 in (2:53 am)30.01 in (2:20 pm)
Wind Speed14.1 mph18.4 mph (3:53 pm)
Wind Gust27.6 mph (2:20 pm)
Weather ElementAverage
Visibility5.8 mi
Wind DirectionSW (226.7 °)

Weather ElementTotal
Precipitation0.02 in
Heating Degree Days39.1 (Base 65)
Averaged from 36 records on January 3, 2013
WEATHER CONDITIONS BREAKOUT
WIND DIRECTION BREAKOUT
WEATHER BY HOUR - JANUARY 3, 2013
[ °C ]   °F
Local TimeTemperatureDewpointHumidityBarometerVisibilityWind DirectionWind SpeedGust SpeedPrecipitationEventsConditions
1:53 AM24.1 °F17.1 °F75 %30.18 in8.0 miSW (230°)6.9 mph0.00 inOvercast
2:53 AM24.1 °F17.1 °F75 %30.19 in10.0 miSW (230°)4.6 mphOvercast
3:53 AM23.0 °F16.0 °F74 %30.18 in10.0 miSSW (200°)8.1 mphOvercast
4:53 AM23.0 °F16.0 °F74 %30.16 in10.0 miSSW (200°)9.2 mphOvercast
5:53 AM21.9 °F15.1 °F75 %30.16 in6.0 miSSW (200°)10.4 mph0.00 inHaze
6:53 AM21.9 °F14.0 °F72 %30.16 in10.0 miSouth (190°)11.5 mph0.00 inOvercast
7:53 AM21.9 °F12.9 °F68 %30.14 in10.0 miSouth (180°)12.7 mphOvercast
8:53 AM21.0 °F14.0 °F74 %30.14 in10.0 miSouth (190°)13.8 mphOvercast
9:34 AM21.2 °F15.8 °F80 %30.10 in2.0 miSouth (180°)13.8 mph0.00 inSnowLight Snow
9:46 AM21.2 °F15.8 °F80 %30.10 in3.0 miSouth (190°)13.8 mph19.6 mph0.00 inSnowLight Snow
9:53 AM21.9 °F16.0 °F78 %30.13 in4.0 miSouth (190°)12.7 mph20.7 mph0.00 inSnowLight Snow
10:53 AM24.1 °F17.1 °F75 %30.12 in10.0 miSSW (200°)15.0 mph0.00 inOvercast
11:53 AM26.1 °F18.0 °F71 %30.08 in10.0 miSSW (200°)10.4 mphOvercast
12:53 PM28.0 °F17.1 °F63 %30.05 in10.0 miSW (220°)12.7 mph21.9 mphOvercast
1:53 PM28.9 °F15.1 °F56 %30.04 in10.0 miWSW (250°)12.7 mph24.2 mphOvercast
2:20 PM28.4 °F17.6 °F64 %30.01 in10.0 miSW (230°)13.8 mph27.6 mphOvercast
2:53 PM27.0 °F19.0 °F72 %30.04 in7.0 miSW (230°)13.8 mph20.7 mph0.00 inSnowLight Snow
3:53 PM28.0 °F19.9 °F72 %30.04 in6.0 miSW (230°)18.4 mph0.00 inSnowLight Snow
4:27 PM28.4 °F21.2 °F74 %30.01 in1.8 miSW (230°)17.3 mph24.2 mph0.00 inSnowLight Snow
4:53 PM28.0 °F21.9 °F78 %30.05 in1.2 miSW (230°)18.4 mph25.3 mph0.00 inSnowLight Snow
5:10 PM28.4 °F21.2 °F74 %30.02 in2.5 miSW (230°)15.0 mph24.2 mph0.00 inSnowLight Snow
5:19 PM28.4 °F23.0 °F80 %30.02 in3.0 miSW (220°)17.3 mph24.2 mph0.00 inSnowLight Snow
5:29 PM28.4 °F23.0 °F80 %30.02 in2.5 miSW (220°)18.4 mph25.3 mph0.00 inSnowLight Snow
5:46 PM28.4 °F24.8 °F86 %30.02 in3.0 miSW (230°)18.4 mph25.3 mph0.00 inSnowLight Snow
5:53 PM28.9 °F24.1 °F82 %30.05 in3.0 miSW (230°)18.4 mph24.2 mph0.00 inSnowLight Snow
6:03 PM28.4 °F24.8 °F86 %30.03 in2.5 miSW (230°)15.0 mph23.0 mph0.00 inSnowLight Snow
6:12 PM28.4 °F24.8 °F86 %30.03 in2.5 miSW (220°)18.4 mph24.2 mph0.00 inSnowLight Snow
6:28 PM28.4 °F24.8 °F86 %30.03 in3.0 miSW (230°)17.3 mph24.2 mph0.00 inSnowLight Snow
6:40 PM28.4 °F24.8 °F86 %30.04 in2.0 miWSW (240°)12.7 mph19.6 mph0.01 inSnowLight Snow
6:53 PM28.9 °F25.0 °F85 %30.07 in5.0 miWSW (250°)10.4 mph0.01 inSnowLight Snow
7:18 PM30.2 °F26.6 °F86 %30.05 in6.0 miWest (280°)13.8 mph23.0 mph0.00 inSnowLight Snow
7:53 PM30.9 °F26.1 °F82 %30.09 in4.0 miWest (280°)18.4 mph27.6 mph0.00 inSnowLight Snow
8:53 PM30.0 °F24.1 °F79 %30.09 in5.0 miWest (270°)18.4 mph27.6 mph0.00 inHaze
9:53 PM30.0 °F23.0 °F75 %30.10 in4.0 miWest (270°)15.0 mph26.5 mph0.00 inSnowLight Snow
10:53 PM30.0 °F23.0 °F75 %30.09 in7.0 miWest (270°)15.0 mph23.0 mph0.00 inOvercast
11:53 PM30.9 °F24.1 °F76 %30.09 in6.0 miWNW (290°)17.3 mph25.3 mph0.00 inHaze
Hourly data recorded from KDKK, located miles away from Chautauqua, New York







STORIES FROM OUR PARTNERS